Weather History for Winner, SD

Change the Weather History Date:

Saturday, February 16, 2013

  Actual Average Record
Temperature  
Mean Temperature 34 °F 27 °F  
Max Temperature 49 °F 38 °F 71 °F (2011)
Min Temperature 19 °F 17 °F 19 °F (2012)
Degree Days  
Heating Degree Days 31 38  
Month to date heating degree days 524 625  
Since 1 July heating degree days 4164 4580  
Cooling Degree Days 0 0  
Month to date cooling degree days 0 0  
Year to date cooling degree days 0 0  
Moisture  
Dew Point 24 °F    
Average Humidity 73    
Maximum Humidity 92    
Minimum Humidity 53    
Precipitation  
Precipitation T in 0.02 in 0.05 in (2014)
Month to date precipitation T 0.29  
Year to date precipitation T 0.54  
Sea Level Pressure  
Sea Level Pressure 30.04 in    
Wind  
Wind Speed 11 mph (South)    
Max Wind Speed 21 mph    
Max Gust Speed 25 mph    
Visibility 9 miles    
Events Snow    
T = Trace of Precipitation, MM = Missing Value Source: NWS Daily Summary

Daily Weather History Graph

Daily Weather History Graph

Search for Another Location

Airport:

Trip Planner

Search our weather history database for the weather conditions in past years. The results will help you decide how hot, cold, wet, or windy it might be!

Date:

Astronomy

Feb. 16, 2013 Rise Set
Actual Time 7:35 AM CST 6:11 PM CST
Civil Twilight 7:06 AM CST 6:41 PM CST
Nautical Twilight 6:33 AM CST 7:14 PM CST
Astronomical Twilight 5:59 AM CST 7:47 PM CST
Moon 10:36 AM CST (2/16) 12:25 AM CST (2/16)
Length of Visible Light 11h 34m
Length of Day
10h 36m
Waxing Crescent, 39% of the Moon is Illuminated
Feb 16
Waxing Crescent
Feb 17
First Quarter
Feb 25
Full
Mar 4
Last Quarter
Mar 11
New

Hourly Weather History & Observations

Time (CST) Temp. Windchill Dew Point Humidity Pressure Visibility Wind Dir Wind Speed Gust Speed Precip Events Conditions
12:53 AM 19.9 °F 5.7 °F 12.9 °F 74% 30.27 in 10.0 mi SSW 16.1 mph - N/A   Mostly Cloudy
1:53 AM 21.0 °F 7.1 °F 12.9 °F 71% 30.24 in 10.0 mi SSW 16.1 mph - N/A   Mostly Cloudy
2:53 AM 21.9 °F 7.3 °F 12.9 °F 68% 30.19 in 10.0 mi SSW 18.4 mph - N/A   Overcast
3:53 AM 24.1 °F 11.0 °F 15.1 °F 69% 30.15 in 10.0 mi SSW 16.1 mph - N/A   Overcast
4:53 AM 25.0 °F 11.3 °F 16.0 °F 69% 30.11 in 10.0 mi SSW 18.4 mph - N/A   Overcast
5:53 AM 26.1 °F 16.2 °F 18.0 °F 71% 30.09 in 10.0 mi SW 10.4 mph - N/A   Overcast
6:53 AM 26.1 °F 17.6 °F 21.9 °F 84% 30.07 in 7.0 mi SSW 8.1 mph - 0.00 in Snow Light Snow
7:01 AM 26.6 °F 18.2 °F 21.2 °F 80% 29.98 in 9.0 mi SSW 8.1 mph - 0.00 in   Overcast
7:49 AM 26.6 °F 17.5 °F 23.0 °F 86% 29.97 in 4.0 mi South 9.2 mph - 0.00 in Snow Light Snow
7:53 AM 27.0 °F 18.7 °F 23.0 °F 85% 30.06 in 4.0 mi South 8.1 mph - 0.00 in Snow Light Snow
8:53 AM 28.0 °F 20.8 °F 24.1 °F 85% 30.06 in 10.0 mi SSE 6.9 mph - 0.00 in   Overcast
9:53 AM 30.9 °F 24.3 °F 25.0 °F 79% 30.04 in 10.0 mi SSW 6.9 mph - N/A   Overcast
10:53 AM 35.1 °F 27.9 °F 27.0 °F 72% 30.03 in 10.0 mi WSW 9.2 mph - N/A   Overcast
11:53 AM 39.9 °F 32.5 °F 28.9 °F 65% 30.01 in 10.0 mi WNW 12.7 mph - N/A   Mostly Cloudy
12:53 PM 45.0 °F 37.6 °F 30.0 °F 56% 29.99 in 10.0 mi WNW 17.3 mph - N/A   Mostly Cloudy
1:53 PM 46.9 °F - 30.9 °F 54% 29.97 in 10.0 mi NNW 16.1 mph - N/A   Scattered Clouds
2:53 PM 48.0 °F - 32.0 °F 54% 29.96 in 10.0 mi NNW 17.3 mph - N/A   Clear
3:53 PM 46.9 °F - 33.1 °F 59% 29.96 in 10.0 mi NNE 6.9 mph - N/A   Clear
4:53 PM 42.1 °F 37.7 °F 32.0 °F 67% 29.98 in 10.0 mi ENE 6.9 mph - N/A   Clear
5:53 PM 37.0 °F 31.0 °F 30.0 °F 76% 29.98 in 10.0 mi ESE 8.1 mph - N/A   Clear
6:53 PM 34.0 °F 28.0 °F 28.9 °F 82% 29.98 in 10.0 mi SE 6.9 mph - N/A   Clear
7:53 PM 30.9 °F 22.8 °F 28.0 °F 89% 29.98 in 10.0 mi SE 9.2 mph - N/A   Clear
8:53 PM 30.9 °F 24.3 °F 27.0 °F 85% 29.98 in 10.0 mi SSE 6.9 mph - N/A   Clear
9:53 PM 30.0 °F 24.1 °F 27.0 °F 88% 29.98 in 10.0 mi SSE 5.8 mph - N/A   Clear
10:53 PM 32.0 °F 24.8 °F 27.0 °F 82% 29.95 in 10.0 mi South 8.1 mph - N/A   Clear
11:53 PM 30.0 °F 22.4 °F 26.1 °F 85% 29.93 in 10.0 mi South 8.1 mph - N/A   Clear